Theta_e
340 340 337 333 331 328 329 333 335 334 332 330 331 329 326 326 328 332 334 334 334 334 334 333 333 332 332 332 331 331 332 332 332 332 332 331 330 330 330 330 329 329 327 326 326 325 323 321 318 315 314 312 311 310 309 307 306 306 305 305 306 307 306
339 339 339 337 336 333 331 333 334 332 332 332 332 330 327 328 330 333 334 334 334 334 334 333 332 332 332 332 330 330 331 332 332 332 331 331 330 330 330 330 329 328 326 325 325 325 324 324 321 318 315 314 313 311 309 308 307 306 306 306 306 307 307
340 340 339 339 338 336 334 334 333 333 332 333 332 330 329 331 332 333 333 334 334 334 334 333 332 331 331 332 330 330 331 332 332 331 331 331 331 330 329 329 329 327 325 324 324 324 324 323 323 321 318 315 315 313 311 309 307 306 306 307 307 306 306
341 340 340 339 338 337 336 335 335 334 333 332 332 332 332 332 332 334 334 335 335 334 334 333 332 331 331 332 331 330 330 331 332 331 331 332 331 330 329 329 328 327 326 325 324 324 323 323 323 322 320 317 316 314 313 310 307 306 307 307 307 306 306
341 341 341 340 339 338 337 336 336 335 334 333 332 332 334 333 334 335 335 336 335 334 334 333 332 332 332 332 331 330 330 331 332 331 332 332 331 331 330 329 328 327 326 325 325 324 323 323 323 322 322 319 316 314 314 311 308 307 307 307 306 306 306
341 341 341 341 340 339 338 337 337 336 334 333 331 331 333 333 334 335 336 336 336 335 334 333 333 333 332 332 331 330 330 330 331 331 331 331 330 330 331 330 329 327 327 326 325 325 324 323 323 322 321 319 316 314 312 310 309 308 307 306 306 307 306
341 341 342 342 341 340 339 338 337 336 335 332 330 331 332 333 334 335 335 336 336 335 334 333 333 333 332 332 332 331 331 331 331 331 331 331 330 330 330 330 329 328 327 326 325 325 324 323 322 322 321 318 316 315 311 310 309 308 308 307 306 306 306
341 342 343 342 341 340 339 338 337 336 334 331 329 329 331 335 336 335 335 336 335 335 334 334 334 333 332 332 332 332 332 332 332 332 332 331 331 330 330 329 328 327 326 326 325 325 324 323 322 321 322 320 317 316 312 310 309 309 308 308 306 306 305
339 342 343 342 342 341 339 339 338 336 333 330 329 328 330 335 336 336 336 336 335 335 335 334 333 332 331 332 332 332 332 332 332 331 331 330 329 329 329 328 328 327 326 325 324 324 323 322 321 321 322 320 318 317 314 311 310 309 308 308 307 306 305
337 340 342 342 342 340 339 340 338 337 336 334 332 330 329 332 335 336 336 336 335 335 335 335 333 331 331 331 332 332 332 332 331 330 330 329 328 328 328 328 328 327 326 324 324 324 323 322 322 322 321 319 318 317 315 314 312 310 309 308 307 306 305
337 338 340 342 342 339 340 341 339 338 338 337 336 333 330 331 334 336 336 336 335 335 335 335 333 332 331 331 332 332 332 331 330 328 329 328 328 328 328 328 328 327 325 323 323 323 322 322 320 318 319 318 317 316 316 315 314 312 310 309 307 307 305
339 337 339 342 341 339 341 342 339 338 339 338 337 334 330 330 333 335 336 336 335 335 334 334 334 332 331 331 332 331 331 330 328 328 328 327 327 327 327 326 326 325 323 320 319 318 317 315 311 312 315 315 315 316 316 315 314 313 312 310 308 306 305
342 340 340 341 342 340 341 342 340 337 338 339 337 333 330 331 334 335 336 336 335 335 334 334 333 332 331 331 331 331 330 329 328 327 326 325 324 323 324 323 322 321 319 315 314 312 310 307 305 308 313 313 314 314 314 314 313 313 312 310 309 306 305
343 342 341 341 341 341 341 342 341 338 338 339 338 334 330 331 334 336 336 336 335 335 334 333 332 332 331 331 331 331 330 329 327 326 325 323 320 319 319 319 318 316 313 311 311 308 307 305 303 305 309 311 312 312 312 312 312 313 313 310 308 306 304
343 343 342 341 341 341 341 341 340 339 338 338 338 335 330 331 334 336 337 336 336 335 334 333 331 331 331 331 331 331 330 328 327 326 325 322 319 317 316 316 315 312 309 308 308 307 307 305 303 305 307 309 311 311 310 308 310 313 312 307 306 305 304
344 343 342 340 340 340 341 341 340 340 339 338 338 336 331 330 334 337 337 336 335 335 334 332 330 330 330 331 331 331 329 328 326 327 326 324 320 317 314 313 311 308 305 306 305 305 305 303 303 307 308 306 308 309 306 305 310 313 309 306 304 305 304
344 343 342 341 341 340 340 341 340 340 340 338 338 336 331 329 333 336 337 336 335 334 333 331 329 329 330 330 331 330 328 327 326 327 327 325 322 317 312 310 309 305 303 303 303 302 302 300 301 305 305 302 302 303 301 302 306 308 307 306 304 304 305
343 343 342 342 341 340 340 340 340 340 339 339 338 337 332 329 332 336 337 336 335 334 333 331 329 329 330 330 330 329 328 327 326 327 326 326 323 318 312 308 306 303 301 302 302 300 300 300 300 300 300 300 300 299 298 299 301 302 305 307 305 304 305
342 343 342 342 341 340 340 340 340 340 339 338 338 337 332 329 331 336 337 336 336 334 332 331 331 330 330 330 330 328 327 326 326 326 326 325 323 317 311 307 305 302 301 301 300 300 299 299 299 299 299 300 301 299 298 299 300 302 305 307 307 304 302
342 342 342 342 341 340 340 340 339 339 339 338 338 337 333 328 331 336 337 336 336 335 333 331 330 330 330 330 329 328 326 326 325 325 325 324 321 316 310 306 304 302 301 300 300 299 300 299 299 299 298 299 299 298 298 300 302 304 305 307 307 305 302
341 342 342 341 341 340 340 339 339 339 339 339 338 337 333 328 331 336 337 336 336 335 333 331 330 330 330 329 328 327 326 326 325 325 325 323 320 314 308 305 303 301 300 300 300 299 299 299 299 299 298 299 298 298 300 301 303 305 306 306 306 305 304
340 341 341 341 340 340 339 339 339 339 339 338 338 337 334 330 332 336 337 336 336 335 333 332 331 330 329 329 328 326 326 326 325 325 325 323 319 313 307 303 302 301 300 300 299 299 299 299 299 299 298 298 298 299 301 302 303 305 305 305 305 304 304
340 340 341 340 340 340 339 339 339 338 339 338 337 337 336 332 332 336 338 336 336 335 334 332 331 330 330 329 327 326 326 326 325 324 323 322 318 311 306 303 301 300 300 300 299 299 299 299 299 298 298 298 298 298 299 300 302 304 304 304 304 304 303
340 340 340 340 339 339 339 339 339 338 338 338 337 337 337 333 333 336 337 336 336 335 334 333 331 330 330 329 326 326 326 326 325 323 321 321 317 310 304 302 300 300 300 299 299 299 299 299 299 298 298 298 298 298 299 300 302 304 304 304 304 303 302
339 340 340 339 339 339 339 338 338 338 338 338 338 337 337 335 334 336 337 336 336 334 333 333 331 330 330 328 326 326 326 326 324 321 320 319 314 307 303 301 300 300 299 299 299 299 299 299 298 298 298 298 297 299 300 299 301 303 303 304 304 303 302
340 339 339 339 338 338 338 338 338 338 337 338 338 337 337 335 334 336 337 336 335 334 333 332 331 330 329 327 326 326 326 326 323 319 318 317 311 305 301 300 300 299 299 299 299 299 298 299 299 298 298 297 297 299 299 298 299 300 301 302 303 303 302
340 339 339 339 338 338 338 338 338 338 337 337 337 337 336 335 335 337 337 335 334 334 332 331 330 330 329 327 326 326 325 325 321 317 315 313 308 303 301 300 299 299 299 299 298 298 298 299 299 298 298 298 298 299 299 297 297 297 298 299 301 302 301
339 339 338 338 338 338 338 338 338 337 336 337 338 338 337 336 336 336 336 335 334 333 332 330 329 329 328 326 326 325 325 324 319 315 312 309 305 301 300 299 299 299 299 299 298 299 299 299 299 298 298 298 299 299 297 297 297 297 297 297 298 300 301
339 338 338 338 338 338 338 338 338 337 335 335 337 338 337 336 335 335 335 334 333 333 332 330 329 328 327 326 326 325 324 322 317 312 309 307 302 300 299 299 299 299 299 298 299 299 299 299 299 298 298 299 299 298 297 297 296 296 297 297 297 298 299
339 338 338 338 339 339 338 338 338 336 335 334 335 337 337 336 335 334 334 334 334 333 332 330 329 328 327 326 325 324 323 321 316 310 307 305 301 299 298 298 298 298 298 299 299 299 299 299 299 299 299 299 299 298 297 296 296 296 296 297 297 296 297
338 337 337 338 338 339 338 338 337 337 335 333 333 335 336 336 335 334 335 335 335 333 332 331 330 328 327 326 325 324 324 322 317 310 306 303 301 299 298 298 298 298 298 299 299 299 299 299 299 299 298 298 298 298 297 296 296 296 296 296 296 296 296
336 336 337 338 339 338 338 338 337 337 334 332 333 334 334 335 335 335 336 335 334 333 332 330 329 328 327 326 326 325 325 323 318 311 305 302 300 299 299 298 298 298 298 299 299 299 299 299 299 298 298 298 298 298 297 296 296 296 296 296 296 296 296
336 336 337 338 338 338 338 337 337 337 334 333 335 335 334 334 335 336 336 334 333 333 331 330 330 328 327 327 326 325 325 323 320 313 306 302 300 300 299 298 298 298 298 298 299 299 299 299 299 298 298 298 299 299 298 297 296 296 296 296 295 296 296
336 337 338 338 338 338 338 337 337 336 334 333 334 335 333 333 334 336 336 335 333 333 331 330 330 328 327 327 326 326 325 324 322 316 307 302 301 300 299 298 298 298 298 298 299 300 299 298 298 298 298 299 299 299 298 299 297 295 296 298 298 298 300
337 338 338 338 338 338 338 337 337 336 334 332 334 334 333 333 334 335 336 336 335 333 332 331 330 328 327 327 326 326 325 323 323 318 309 303 301 301 299 298 298 298 298 298 300 300 299 298 298 298 299 299 299 297 297 299 300 297 297 299 300 301 302
337 338 338 338 338 338 337 337 337 336 334 333 333 333 332 332 333 334 335 336 335 335 333 331 330 329 327 326 326 326 325 324 323 318 310 304 301 300 299 299 299 298 298 299 300 299 298 298 298 299 299 299 298 296 295 298 301 300 299 299 300 301 302
337 337 338 338 338 338 337 337 337 336 335 333 332 331 331 331 333 334 335 335 334 334 334 332 330 328 327 327 327 326 325 324 321 315 308 303 300 300 300 300 299 299 298 299 299 298 298 298 298 299 299 298 297 296 295 296 299 301 301 300 301 301 301
Wind_Speed
20 19 19 22 23 25 25 19 16 18 19 20 22 21 20 20 18 17 17 16 15 15 14 15 15 16 16 16 17 16 15 16 16 15 17 19 18 19 19 18 18 18 15 13 12 10 9 9 10 12 14 14 14 14 13 11 11 12 12 9 7 8 9
21 20 18 18 18 23 24 20 19 20 19 20 21 22 21 20 19 18 17 17 16 16 15 15 16 16 17 17 17 16 16 16 16 16 16 17 17 18 18 16 17 17 15 15 15 13 12 11 9 11 13 15 16 16 16 13 13 13 12 9 8 9 9
21 20 19 19 18 20 21 20 20 20 19 19 20 21 21 20 19 18 17 17 16 16 15 15 16 17 17 18 16 16 16 16 17 16 15 17 20 19 17 15 17 17 13 13 13 12 11 11 11 9 10 14 15 16 18 16 15 14 12 11 10 9 10
22 21 23 22 20 20 19 19 19 18 19 19 20 21 20 19 19 18 17 17 16 16 15 16 17 17 17 18 17 16 16 16 16 15 15 17 18 16 15 15 15 15 14 13 12 11 11 11 11 10 9 12 13 14 16 17 15 13 12 12 11 10 11
25 24 24 23 23 23 21 19 19 17 18 19 20 21 21 20 19 19 18 17 17 16 16 17 17 16 18 18 17 17 17 16 16 15 15 16 14 13 14 14 14 14 14 14 13 12 12 11 11 11 10 10 11 10 12 14 14 12 12 12 11 11 12
28 27 25 22 23 22 20 20 20 18 18 20 23 23 22 21 20 19 18 17 17 17 16 17 16 16 18 18 18 18 18 17 16 15 15 15 15 15 14 13 13 14 14 14 14 13 13 13 12 11 10 9 10 9 10 12 12 12 13 13 11 11 11
30 28 25 24 24 21 19 21 21 18 18 21 24 24 22 21 21 19 18 17 17 17 16 16 16 16 17 17 18 18 17 17 16 15 15 15 15 16 15 14 14 14 15 15 15 15 14 14 13 12 11 9 9 9 10 10 11 12 12 12 12 11 10
32 26 23 24 25 22 20 21 22 21 22 23 23 23 21 20 19 19 18 18 17 17 16 16 16 16 17 17 18 17 17 16 15 14 14 14 15 16 16 16 15 14 15 16 15 15 15 14 14 13 13 11 10 11 11 10 11 13 11 11 12 11 11
34 28 23 22 24 25 24 23 23 24 24 25 24 23 22 20 19 18 17 17 17 17 16 17 17 17 18 18 18 17 17 16 15 14 15 16 18 18 17 18 16 14 14 14 14 15 14 15 15 14 14 14 12 11 11 11 12 12 11 11 11 11 12
37 34 28 22 24 29 28 23 24 25 23 23 23 23 24 21 18 17 17 17 17 17 17 17 18 19 19 18 17 16 15 15 16 16 15 16 17 17 17 17 16 14 14 14 14 14 15 14 15 15 14 15 14 12 11 11 12 12 12 12 10 10 12
39 39 31 22 25 30 26 22 25 26 22 22 22 23 26 24 19 18 17 18 18 18 18 17 18 19 18 17 15 14 14 15 16 14 13 13 14 14 15 15 14 13 13 14 13 15 15 15 17 16 15 15 14 14 12 10 10 10 11 12 9 9 12
37 40 35 24 25 29 24 21 26 27 23 22 23 25 27 24 21 20 19 19 19 19 19 19 19 19 18 17 16 15 14 14 15 13 12 12 13 13 14 15 15 14 14 15 16 18 18 18 18 16 15 15 14 14 13 10 10 9 10 10 10 9 12
32 37 35 26 25 27 23 21 26 28 25 24 24 25 26 24 23 21 20 21 21 21 21 21 21 20 19 19 19 17 16 16 16 14 13 14 15 16 16 18 18 18 17 17 18 19 18 18 17 16 15 14 14 14 13 11 10 8 9 10 11 11 13
29 31 31 29 27 25 22 21 24 27 27 25 25 26 27 25 23 22 21 22 22 22 22 22 22 21 21 21 21 20 18 18 18 17 16 17 17 18 19 19 20 20 19 18 18 18 17 17 18 18 16 14 13 13 13 12 10 9 11 14 14 13 13
27 28 32 35 30 24 22 22 23 27 29 28 26 26 28 27 25 23 22 23 23 21 22 23 23 22 22 21 20 20 19 19 19 18 17 17 17 18 18 19 19 19 18 18 18 16 16 17 17 16 15 13 12 11 13 13 10 10 14 16 14 13 12
26 29 36 36 30 25 23 23 24 26 29 29 27 27 28 29 26 25 25 24 24 22 22 24 25 23 22 22 20 20 20 20 20 19 18 17 17 18 18 18 19 18 18 18 18 17 16 17 15 12 13 13 12 12 13 13 12 12 13 14 12 12 11
28 32 36 33 31 27 23 23 24 25 27 29 29 28 29 30 29 27 28 26 25 24 24 25 26 25 23 22 21 20 20 20 20 20 19 18 18 18 18 18 18 17 17 18 18 18 17 17 16 14 14 13 13 13 14 14 14 13 12 12 11 9 9
31 32 32 31 34 30 23 24 25 24 26 28 30 30 30 32 32 29 30 28 25 24 25 25 25 25 24 23 22 21 21 21 20 20 20 20 20 19 19 19 18 17 18 19 18 18 18 17 16 15 14 13 13 14 14 14 14 13 11 10 9 9 10
31 30 31 33 36 32 25 25 26 26 26 27 31 33 32 34 34 31 30 29 26 25 26 25 25 24 24 23 22 22 22 21 21 20 20 21 20 20 20 20 19 19 19 19 19 19 18 17 16 15 14 14 14 15 14 12 11 12 11 9 9 10 10
31 30 31 34 36 32 27 27 27 26 26 26 29 34 35 35 35 32 31 29 28 27 26 25 25 24 24 23 22 23 23 22 21 21 21 22 22 22 21 21 21 21 21 21 20 19 18 17 16 16 16 16 16 15 13 11 11 12 11 10 10 10 9
31 30 30 31 34 34 30 31 29 26 26 26 26 31 35 37 35 33 32 31 30 30 28 27 27 26 25 24 24 24 23 21 21 21 21 22 23 23 23 23 22 22 22 22 21 20 19 18 18 18 18 18 17 14 12 11 12 11 11 11 10 9 8
31 31 30 31 35 36 34 34 32 28 28 27 26 29 34 37 36 34 33 33 32 31 31 29 30 29 27 26 26 25 23 21 21 21 21 22 24 24 24 24 24 23 24 23 22 21 20 20 19 19 19 17 15 14 13 13 12 12 11 11 10 9 9
32 31 31 34 37 37 35 35 32 29 28 28 27 28 32 37 37 35 34 34 33 32 32 31 32 31 28 26 26 24 22 21 21 21 22 23 24 24 25 25 24 24 24 23 22 21 21 21 20 20 18 16 15 15 15 14 13 12 12 11 11 10 9
33 31 31 33 35 36 35 33 31 28 27 29 30 30 33 37 38 36 35 34 34 33 33 33 32 30 28 26 25 23 22 21 21 22 23 24 25 25 25 25 24 24 24 24 23 23 22 21 21 20 18 17 17 16 15 15 14 13 12 11 10 10 9
33 31 30 32 35 36 34 32 29 26 26 31 33 32 34 38 38 37 36 35 35 34 33 33 32 29 28 27 26 24 22 21 22 22 24 24 25 25 25 25 25 25 25 25 24 23 23 22 21 20 19 19 18 17 16 16 16 14 13 11 10 10 9
33 32 32 33 35 35 34 32 29 26 25 30 33 32 34 38 39 38 37 35 35 34 32 31 30 29 29 28 27 24 22 22 22 23 24 25 25 25 26 26 27 26 26 25 24 24 23 22 21 20 20 19 18 16 16 18 18 17 15 13 10 10 10
33 32 33 34 35 36 35 31 29 27 28 32 34 34 35 38 38 38 37 36 35 33 32 30 29 30 30 29 27 24 22 22 22 23 25 25 25 26 26 27 27 27 26 25 24 25 24 23 21 21 20 19 18 16 16 18 19 18 17 15 12 10 11
33 32 34 36 36 37 34 30 28 29 30 34 37 37 37 38 38 37 36 35 35 34 32 28 28 31 31 28 26 23 22 22 22 24 25 25 25 26 27 27 27 27 26 25 26 26 25 23 22 22 20 19 17 16 16 18 19 18 17 16 14 12 12
33 34 35 37 38 37 33 30 29 27 27 31 36 39 39 39 38 37 36 35 36 36 32 26 26 31 31 29 26 23 22 22 22 24 26 26 26 27 27 27 27 27 27 27 27 25 24 24 23 21 20 19 17 17 17 18 19 18 17 17 16 15 15
33 35 36 36 38 36 33 32 32 30 28 29 34 39 41 39 37 37 38 38 38 36 31 25 26 31 32 30 26 24 23 23 23 25 27 27 27 28 28 28 28 28 28 28 27 25 25 25 23 21 20 19 18 18 18 19 19 18 17 18 17 17 15
34 35 35 34 36 37 35 34 36 35 33 33 35 39 41 40 40 40 39 38 36 34 30 27 28 32 33 30 27 25 24 23 24 26 28 28 28 28 29 29 29 28 29 29 27 26 26 25 23 22 21 20 19 19 19 19 19 19 19 18 18 17 16
34 33 34 34 36 37 35 36 38 37 35 37 38 38 38 40 42 41 39 36 34 34 32 29 30 33 33 30 28 26 24 24 25 26 28 29 29 29 30 30 29 29 30 29 27 27 27 26 24 23 22 20 20 20 19 20 20 20 20 19 18 18 17
33 32 34 35 36 35 35 38 40 37 35 37 37 36 37 40 40 39 39 37 35 36 34 32 31 33 32 30 28 27 25 25 25 26 28 30 31 31 31 30 29 30 30 29 26 26 26 25 24 23 22 21 20 19 19 20 21 20 20 19 19 17 16
31 31 32 33 34 34 36 37 36 33 33 35 34 30 33 38 38 37 39 40 39 38 36 33 33 33 32 31 29 27 26 26 25 25 28 31 31 31 31 31 30 31 30 28 26 26 26 24 24 23 22 21 20 19 19 19 20 20 19 18 18 17 15
30 30 31 32 32 33 34 34 32 31 31 34 34 31 33 38 38 36 38 40 41 42 40 35 33 33 32 32 31 27 26 26 25 25 30 32 31 31 31 30 30 30 29 27 26 25 25 23 23 23 22 21 21 21 20 18 17 18 19 18 17 16 14
32 31 32 33 32 32 33 33 34 34 31 31 35 39 40 42 40 37 39 40 41 44 43 38 35 34 34 33 30 27 26 26 24 25 29 31 31 30 29 28 28 28 27 25 25 24 23 22 22 22 21 21 20 20 20 18 15 15 17 18 17 16 16
30 31 32 33 33 32 32 34 37 39 34 33 37 41 41 42 41 40 40 39 38 42 44 41 37 35 35 34 31 28 26 24 23 25 27 29 30 29 27 27 27 25 24 24 23 22 21 21 21 20 19 19 19 19 20 20 17 15 16 17 17 18 18
Wind_Direction
209 209 210 211 211 212 209 206 206 208 208 208 213 216 216 218 220 219 220 220 220 218 217 219 218 216 215 215 215 214 213 214 215 217 226 237 235 229 236 241 243 249 247 243 248 248 251 249 225 219 224 223 221 219 219 217 212 218 227 228 218 225 244
211 207 209 209 207 211 212 210 211 210 208 208 213 217 215 216 218 219 220 221 222 221 219 218 218 215 213 215 215 213 215 217 219 221 226 234 234 231 238 245 244 245 245 247 252 250 254 264 243 215 213 219 223 225 223 216 211 218 229 233 219 216 235
210 206 206 209 207 210 210 210 212 210 210 209 212 217 215 213 216 219 220 221 222 222 220 217 217 215 213 214 215 213 217 220 223 223 222 229 235 235 239 246 246 241 235 239 248 245 242 254 262 243 216 216 223 228 230 227 220 220 226 231 228 217 228
209 206 206 209 209 211 209 208 210 211 212 212 213 217 217 213 215 219 219 219 222 222 219 217 217 215 213 214 214 213 217 222 225 223 221 228 236 238 237 240 242 238 233 235 240 241 239 242 253 260 243 227 224 222 230 236 227 220 224 229 232 226 226
212 207 207 208 210 212 211 210 211 211 212 213 214 216 217 215 214 217 219 218 221 222 218 217 216 213 214 216 216 215 216 220 224 226 227 229 232 234 234 237 236 233 234 238 236 237 240 241 244 255 256 238 228 218 218 229 226 216 219 225 228 229 231
217 211 210 208 209 210 209 210 212 210 210 214 217 217 217 215 213 215 217 217 219 221 219 217 215 214 217 218 217 217 215 216 220 225 231 233 233 234 237 240 238 234 234 236 236 237 237 240 242 251 255 234 223 218 206 215 220 213 219 226 223 226 234
221 215 213 211 211 211 208 210 212 210 210 215 218 220 220 217 216 216 216 217 220 222 221 216 213 215 219 218 218 220 220 220 220 224 232 237 238 238 236 239 239 234 233 231 233 235 234 238 241 243 245 228 220 222 211 213 214 210 221 226 221 223 227
226 217 212 214 213 210 209 210 210 210 215 220 222 222 221 217 218 218 216 218 220 221 219 215 214 216 218 219 220 223 225 225 225 226 232 236 238 237 235 236 237 234 232 228 228 231 231 237 242 240 235 225 223 221 216 220 215 214 222 221 219 221 225
229 223 213 212 211 211 215 216 215 219 223 227 229 229 226 220 217 218 218 218 218 218 216 214 218 219 219 221 223 225 225 225 227 229 232 235 235 236 234 233 232 232 233 229 227 229 230 233 238 238 230 224 226 222 218 222 220 222 220 211 219 225 231
229 229 220 210 211 217 219 219 222 225 225 225 227 229 230 224 217 215 217 218 217 217 214 214 220 222 221 223 224 225 226 228 231 231 232 233 233 234 232 230 228 227 230 229 227 228 229 231 232 232 228 225 227 228 226 225 224 224 215 209 220 233 241
226 230 225 209 212 220 216 214 224 223 218 219 219 223 229 228 221 217 217 219 215 214 214 214 219 222 222 224 225 225 226 228 231 232 231 229 229 228 224 225 225 223 227 228 227 229 228 229 229 228 227 224 225 231 235 240 238 220 209 216 218 228 255
221 228 227 212 212 221 213 211 224 222 215 218 218 221 225 225 223 219 218 219 216 215 216 216 219 221 220 221 224 225 225 226 228 228 226 225 224 221 219 222 221 221 226 228 230 232 230 231 230 226 224 223 223 229 234 245 250 220 202 216 212 219 256
215 223 224 214 212 219 213 211 223 223 217 216 218 221 222 220 220 219 218 219 217 216 219 220 220 219 218 221 226 227 227 229 230 227 226 228 226 222 221 222 221 222 227 229 231 231 229 230 228 220 221 223 223 228 229 236 244 225 203 217 226 237 260
211 215 217 217 215 214 210 210 219 222 220 218 221 223 221 218 218 216 216 218 218 218 221 223 221 217 217 221 225 229 230 229 230 230 231 230 227 223 221 220 220 224 226 226 227 228 227 228 224 220 220 221 225 229 228 228 232 229 230 240 250 259 271
209 210 217 222 219 212 209 211 215 220 221 220 222 223 221 219 216 214 215 217 218 217 220 224 224 218 217 221 225 229 230 228 227 230 232 230 226 224 221 218 220 224 224 222 223 223 223 224 222 222 223 222 224 227 225 223 219 224 239 248 252 261 273
207 210 219 222 217 211 209 211 213 216 219 219 220 221 221 220 217 215 216 218 218 218 220 225 225 220 217 221 226 229 229 228 227 228 231 229 227 226 222 219 221 224 222 220 221 219 218 220 217 214 220 220 214 218 222 215 206 215 234 246 249 251 263
208 212 216 216 216 213 207 209 212 213 215 217 218 218 220 220 219 217 218 218 217 218 222 225 224 221 218 220 227 231 230 228 228 229 231 230 228 227 223 221 224 224 221 219 218 217 218 219 213 209 216 218 215 221 223 212 209 216 224 236 244 233 240
211 212 210 212 217 214 205 208 212 211 212 213 214 216 218 219 219 217 218 218 216 218 223 225 223 220 218 219 225 231 230 228 229 230 231 232 230 227 224 223 224 222 218 216 214 214 215 214 212 214 216 215 216 220 218 214 218 220 214 220 226 213 220
213 210 208 212 217 213 204 207 210 212 213 211 212 214 216 217 218 217 217 218 218 220 223 225 223 219 218 219 224 228 229 228 231 232 233 233 231 227 224 222 221 219 215 212 211 212 213 211 210 211 209 209 213 214 213 217 218 211 206 208 209 213 224
213 210 210 212 215 213 207 207 209 210 212 210 210 213 214 216 216 215 217 218 219 221 222 224 224 220 218 219 223 226 227 229 232 234 234 233 229 226 223 220 220 217 212 210 210 209 209 208 205 206 208 210 212 213 215 216 209 202 200 200 204 212 222
214 212 210 209 212 213 210 210 210 209 210 209 209 212 214 215 215 214 216 218 220 221 222 223 224 221 218 219 222 224 228 231 234 235 233 230 227 224 220 219 219 215 210 209 209 207 206 204 203 206 209 210 210 213 213 204 199 198 196 197 203 205 207
214 211 208 209 213 213 212 213 212 210 212 210 209 212 214 215 215 213 215 218 220 222 223 224 224 221 220 220 220 223 228 232 235 236 233 228 226 223 220 219 217 213 211 210 208 206 205 204 205 208 210 210 211 211 207 200 197 194 194 199 203 202 202
215 209 208 213 215 214 213 214 212 210 210 210 210 212 214 215 214 213 215 219 220 222 225 225 225 223 222 221 220 222 228 232 235 235 232 228 225 222 219 218 217 214 212 210 207 205 205 206 207 208 209 209 210 208 205 203 198 192 197 203 203 204 207
214 208 208 212 213 212 211 211 209 207 208 210 211 213 215 215 213 213 215 218 221 224 227 227 225 224 223 220 218 222 228 232 235 234 231 227 224 221 219 218 216 213 211 209 207 206 206 207 209 210 210 209 206 205 206 203 197 196 202 205 204 206 209
212 210 208 210 212 213 210 207 206 205 207 212 213 213 216 215 213 213 216 218 222 226 231 232 227 223 220 217 216 222 228 232 234 233 229 225 222 219 217 215 214 212 210 209 208 207 207 208 210 211 213 212 209 208 210 204 197 199 204 204 208 211 210
209 209 210 211 213 212 208 206 208 207 206 212 213 213 215 215 213 214 216 220 224 226 231 235 230 222 218 217 217 221 228 233 235 231 227 223 219 217 215 214 213 211 211 210 208 207 208 209 212 214 214 214 212 214 217 211 204 204 205 205 209 213 214
205 208 214 214 211 211 210 210 213 212 210 212 212 212 215 214 214 216 217 220 225 226 230 234 229 221 219 217 216 221 227 233 233 229 225 222 217 216 214 213 212 211 211 209 205 206 209 211 213 215 215 215 216 217 219 216 213 213 213 213 211 212 222
206 212 217 212 210 214 215 213 213 213 215 215 214 213 214 214 218 219 219 222 225 225 230 234 226 218 217 216 215 219 227 232 231 227 223 220 216 216 215 213 212 212 210 208 206 208 212 213 213 214 215 217 218 219 218 217 219 220 219 219 214 211 223
212 219 218 215 217 218 216 214 212 211 213 214 215 215 215 216 220 220 219 222 223 223 229 236 226 216 213 213 214 217 224 229 228 224 222 219 215 215 215 214 212 211 209 209 210 212 212 214 215 215 216 218 219 220 221 220 222 223 221 220 219 219 227
215 219 219 220 220 217 215 215 213 213 214 214 215 217 216 216 218 218 219 222 222 222 227 232 226 216 210 210 211 213 220 225 225 223 221 218 215 214 214 213 212 211 211 212 213 211 211 213 215 215 216 218 219 221 224 224 223 223 223 222 225 229 234
215 217 220 220 218 218 219 215 212 218 220 216 215 217 216 216 217 217 221 223 222 224 228 228 224 215 209 208 209 213 220 224 224 222 220 218 215 214 214 213 212 212 213 215 214 211 212 215 214 214 216 218 220 223 227 228 223 222 223 224 228 234 236
216 216 217 217 218 219 218 213 216 223 221 215 216 217 217 219 218 218 221 221 222 227 228 224 221 216 210 208 210 213 220 225 225 222 219 217 214 214 216 216 213 212 215 217 215 213 216 218 214 214 217 219 222 226 229 231 228 223 224 226 229 235 240
217 215 215 216 218 218 215 213 217 221 218 214 214 217 220 222 221 221 221 218 220 224 223 220 218 216 214 213 213 214 219 225 228 224 219 217 215 214 216 216 213 213 216 218 215 215 219 220 217 217 218 220 225 228 229 232 231 226 225 228 231 236 242
215 215 216 217 218 219 217 215 216 220 221 217 214 215 221 224 224 224 222 219 219 221 221 218 216 215 215 216 215 216 220 226 231 226 220 218 216 214 217 217 215 216 217 216 216 217 219 219 217 218 220 222 226 228 226 228 231 229 224 224 229 233 237
216 216 217 218 219 220 218 217 219 223 223 219 216 217 221 222 223 224 224 223 222 221 220 217 214 215 217 217 216 217 221 227 231 228 221 218 216 215 217 219 219 219 219 217 218 219 219 220 220 220 222 224 227 230 227 223 226 229 223 220 225 229 230
215 214 216 217 217 217 217 216 220 223 219 214 216 220 222 222 223 226 228 226 225 225 222 217 213 214 215 216 216 217 222 229 234 232 226 221 218 217 218 221 223 222 220 219 220 220 219 220 221 223 226 227 228 232 230 219 215 221 221 219 223 225 226
213 213 215 216 215 216 215 214 217 219 216 214 218 222 222 223 225 228 229 227 226 226 223 217 212 211 213 215 215 216 222 230 233 230 226 222 219 217 217 222 225 221 218 219 220 219 218 221 223 226 230 230 229 231 228 217 211 214 216 217 221 224 227